LAN056 SCEL-SLVR

Flight info

Callsign LAN056
Flight time N/A
Altitude FL320
Route GUVOL5B GUVOL EGIKA UL322 VIR DCT
Aircraft A319/M-S/N

Departure

Time 2026-04-30 13:22
Airport Comodoro Arturo Merino Benítez International Airport (SCEL)

Arrival

Time N/A
Airport Viru Viru International Airport (SLVR)
Time Latitude Longitude Altitude Speed Heading
2026-04-30 13:09 -33.39708 -70.79049 1566 ft 0 kts 357°
2026-04-30 13:10 -33.39715 -70.79049 1566 ft 2 kts 357°
2026-04-30 13:10 -33.39732 -70.79048 1566 ft 3 kts 357°
2026-04-30 13:10 -33.39752 -70.79047 1566 ft 3 kts 357°
2026-04-30 13:11 -33.39772 -70.79045 1566 ft 3 kts 357°
2026-04-30 13:11 -33.39785 -70.79044 1566 ft 0 kts 357°
2026-04-30 13:15 -33.39772 -70.79002 1566 ft 9 kts 76°
2026-04-30 13:15 -33.39754 -70.78904 1566 ft 14 kts 79°
2026-04-30 13:16 -33.39744 -70.78811 1566 ft 9 kts 79°
2026-04-30 13:16 -33.39691 -70.78767 1566 ft 9 kts 357°
2026-04-30 13:16 -33.39617 -70.78778 1566 ft 12 kts 356°
2026-04-30 13:17 -33.39360 -70.78796 1566 ft 25 kts 357°
2026-04-30 13:17 -33.39169 -70.78808 1566 ft 30 kts 356°
2026-04-30 13:17 -33.38895 -70.78825 1566 ft 24 kts 358°
2026-04-30 13:18 -33.38649 -70.78836 1566 ft 29 kts 357°
2026-04-30 13:18 -33.38267 -70.78863 1566 ft 23 kts 356°
2026-04-30 13:18 -33.38153 -70.78872 1566 ft 27 kts 355°
2026-04-30 13:19 -33.37939 -70.78891 1566 ft 24 kts 355°
2026-04-30 13:19 -33.37819 -70.78902 1566 ft 28 kts 356°
2026-04-30 13:19 -33.37626 -70.78905 1566 ft 29 kts
2026-04-30 13:19 -33.37544 -70.78761 1566 ft 0 kts 83°
2026-04-30 13:20 -33.37544 -70.78760 1566 ft 1 kts 83°
2026-04-30 13:20 -33.37548 -70.78718 1566 ft 9 kts 113°
2026-04-30 13:20 -33.37592 -70.78687 1566 ft 5 kts 176°
2026-04-30 13:20 -33.37627 -70.78684 1566 ft 20 kts 177°
2026-04-30 13:21 -33.37825 -70.78672 1566 ft 67 kts 177°
2026-04-30 13:21 -33.38516 -70.78643 1566 ft 133 kts 178°
2026-04-30 13:21 -33.39551 -70.78604 1958 ft 158 kts 178°
2026-04-30 13:22 -33.41956 -70.78497 3262 ft 198 kts 178°
2026-04-30 13:22 -33.43445 -70.78395 3752 ft 229 kts 177°
2026-04-30 13:22 -33.44224 -70.78340 3981 ft 243 kts 177°
2026-04-30 13:23 -33.46124 -70.78489 4443 ft 278 kts 194°
2026-04-30 13:24 -33.49279 -70.81727 5372 ft 354 kts 240°
2026-04-30 13:24 -33.50014 -70.87834 6617 ft 351 kts 285°
2026-04-30 13:25 -33.47660 -70.91757 9437 ft 290 kts 315°
2026-04-30 13:25 -33.45771 -70.96210 10346 ft 312 kts 300°
2026-04-30 13:26 -33.40988 -70.99480 11550 ft 321 kts 357°
2026-04-30 13:26 -33.36519 -70.98786 12469 ft 327 kts
2026-04-30 13:27 -33.32039 -70.97705 13371 ft 330 kts
2026-04-30 13:28 -33.25170 -70.96511 14723 ft 336 kts
2026-04-30 13:28 -33.20653 -70.94783 15628 ft 348 kts 21°
2026-04-30 13:28 -33.19983 -70.94400 32000 ft 478 kts 22°
2026-04-30 13:29 -33.18637 -70.93735 32179 ft 478 kts 21°
2026-04-30 13:29 -33.12792 -70.89838 31939 ft 482 kts 28°
2026-04-30 13:31 -32.99683 -70.77746 31934 ft 473 kts 32°
2026-04-30 13:31 -32.91703 -70.70912 31930 ft 464 kts 20°
2026-04-30 13:32 -32.85625 -70.68821 31937 ft 452 kts
2026-04-30 13:33 -32.73178 -70.68072 31934 ft 446 kts 355°
2026-04-30 13:34 -32.63860 -70.67904 31932 ft 450 kts
2026-04-30 13:34 -32.55691 -70.62197 31938 ft 483 kts 46°
2026-04-30 13:35 -32.53752 -70.58926 31939 ft 488 kts 53°
2026-04-30 13:36 -32.47570 -70.44498 31933 ft 492 kts 60°
2026-04-30 13:36 -32.42988 -70.33653 31931 ft 490 kts 58°
2026-04-30 13:37 -32.37658 -70.23449 31924 ft 479 kts 41°
2026-04-30 13:38 -32.32447 -70.18718 31931 ft 469 kts 26°
2026-04-30 13:38 -32.29618 -70.16809 31930 ft 467 kts 23°
2026-04-30 13:39 -32.17981 -70.10147 31925 ft 464 kts 19°
2026-04-30 13:40 -32.09212 -70.05325 31923 ft 463 kts 20°
2026-04-30 13:40 -32.03391 -70.02078 31921 ft 462 kts 20°
2026-04-30 13:41 -31.97603 -69.98811 31921 ft 462 kts 21°
2026-04-30 13:41 -31.91822 -69.95519 31922 ft 462 kts 21°
2026-04-30 13:42 -31.86085 -69.92232 31920 ft 462 kts 21°
2026-04-30 13:42 -31.77405 -69.87233 31920 ft 462 kts 21°
2026-04-30 13:43 -31.71642 -69.83906 31918 ft 462 kts 21°
2026-04-30 13:43 -31.65879 -69.80577 31911 ft 462 kts 21°
2026-04-30 13:44 -31.60115 -69.77246 31911 ft 462 kts 21°
2026-04-30 13:44 -31.54355 -69.73919 31911 ft 462 kts 21°
2026-04-30 13:45 -31.45717 -69.68934 31914 ft 461 kts 21°
2026-04-30 13:46 -31.39981 -69.65626 31919 ft 460 kts 21°
2026-04-30 13:46 -31.34249 -69.62325 31920 ft 459 kts 21°
2026-04-30 13:47 -31.28520 -69.59031 31918 ft 459 kts 21°
2026-04-30 13:47 -31.22793 -69.55742 31922 ft 459 kts 21°
2026-04-30 13:48 -31.17065 -69.52457 31923 ft 459 kts 21°
2026-04-30 13:48 -31.11336 -69.49175 31923 ft 459 kts 21°
2026-04-30 13:49 -31.05609 -69.45899 31931 ft 459 kts 22°
2026-04-30 13:49 -30.99880 -69.42630 31934 ft 457 kts 24°
2026-04-30 13:50 -30.94199 -69.39388 31935 ft 452 kts 24°
2026-04-30 13:50 -30.85790 -69.34595 31941 ft 447 kts 24°
2026-04-30 13:51 -30.80225 -69.31428 31938 ft 445 kts 24°
2026-04-30 13:51 -30.74653 -69.28263 31941 ft 445 kts 24°
2026-04-30 13:52 -30.69096 -69.25111 31950 ft 445 kts 24°
2026-04-30 13:52 -30.63612 -69.22004 31954 ft 445 kts 24°
2026-04-30 13:53 -30.58269 -69.18981 31955 ft 445 kts 24°
2026-04-30 13:53 -30.52703 -69.15836 31958 ft 445 kts 24°
2026-04-30 13:54 -30.47142 -69.12698 31958 ft 445 kts 24°
2026-04-30 13:54 -30.41569 -69.09557 31958 ft 445 kts 24°
2026-04-30 13:55 -30.36006 -69.06425 31960 ft 445 kts 24°
2026-04-30 13:55 -30.30439 -69.03294 31961 ft 445 kts 24°
2026-04-30 13:56 -30.25229 -69.00369 31962 ft 445 kts 24°
2026-04-30 13:56 -30.19657 -68.97244 31962 ft 445 kts 24°
2026-04-30 13:57 -30.14086 -68.94123 31962 ft 445 kts 24°
2026-04-30 13:57 -30.08519 -68.91008 31962 ft 445 kts 24°
2026-04-30 13:58 -30.00164 -68.86341 31962 ft 445 kts 24°
2026-04-30 13:59 -29.94590 -68.83232 31962 ft 445 kts 24°
2026-04-30 13:59 -29.89020 -68.80129 31962 ft 445 kts 24°
2026-04-30 14:00 -29.83441 -68.77026 31963 ft 445 kts 24°
2026-04-30 14:00 -29.75071 -68.72376 31963 ft 445 kts 24°
2026-04-30 14:01 -29.69500 -68.69286 31964 ft 445 kts 24°
2026-04-30 14:01 -29.63915 -68.66191 31964 ft 445 kts 24°
2026-04-30 14:02 -29.58346 -68.63092 31963 ft 446 kts 25°
2026-04-30 14:02 -29.52892 -68.59695 31964 ft 447 kts 27°
2026-04-30 14:03 -29.47522 -68.56088 31963 ft 447 kts 28°
2026-04-30 14:03 -29.42193 -68.52416 31965 ft 447 kts 29°
2026-04-30 14:04 -29.36870 -68.48724 31966 ft 447 kts 29°
2026-04-30 14:04 -29.31551 -68.45031 31973 ft 447 kts 26°
2026-04-30 14:05 -29.26237 -68.41350 31969 ft 448 kts 26°
2026-04-30 14:05 -29.20899 -68.37666 31964 ft 449 kts 26°
2026-04-30 14:06 -29.12863 -68.32133 31972 ft 450 kts 26°
2026-04-30 14:07 -29.04819 -68.26609 31977 ft 450 kts 26°
2026-04-30 14:08 -28.96766 -68.21089 31983 ft 450 kts 26°
2026-04-30 14:08 -28.88703 -68.15574 31978 ft 451 kts 26°
2026-04-30 14:09 -28.83331 -68.11906 31977 ft 451 kts 26°
2026-04-30 14:10 -28.75266 -68.06405 31989 ft 451 kts 26°
2026-04-30 14:10 -28.69888 -68.02744 31990 ft 451 kts 26°
2026-04-30 14:11 -28.64501 -67.99077 31993 ft 452 kts 25°
2026-04-30 14:11 -28.59071 -67.95394 32004 ft 458 kts 25°
2026-04-30 14:12 -28.53566 -67.91671 31997 ft 462 kts 25°
2026-04-30 14:12 -28.48032 -67.87929 31995 ft 464 kts 25°
2026-04-30 14:13 -28.42477 -67.84174 32010 ft 465 kts 25°
2026-04-30 14:13 -28.36922 -67.80421 32016 ft 465 kts 25°
2026-04-30 14:14 -28.32287 -67.77293 32016 ft 465 kts 25°
2026-04-30 14:14 -28.25792 -67.72916 32020 ft 466 kts 25°
2026-04-30 14:15 -28.21150 -67.69790 32019 ft 466 kts 25°
2026-04-30 14:15 -28.15584 -67.66043 32012 ft 466 kts 25°
2026-04-30 14:16 -28.10028 -67.62279 32015 ft 466 kts 25°
2026-04-30 14:16 -28.04478 -67.58509 32022 ft 466 kts 25°
2026-04-30 14:17 -27.98920 -67.54732 32022 ft 466 kts 25°
2026-04-30 14:17 -27.93367 -67.50961 32023 ft 466 kts 25°
2026-04-30 14:18 -27.87812 -67.47193 32022 ft 466 kts 25°
2026-04-30 14:18 -27.79475 -67.41545 32019 ft 466 kts 25°
2026-04-30 14:19 -27.71138 -67.35908 32017 ft 466 kts 25°
2026-04-30 14:20 -27.65582 -67.32157 32015 ft 466 kts 25°
2026-04-30 14:20 -27.57242 -67.26535 32014 ft 466 kts 25°
2026-04-30 14:21 -27.51683 -67.22793 32008 ft 466 kts 25°
2026-04-30 14:22 -27.43340 -67.17186 32002 ft 466 kts 25°
2026-04-30 14:22 -27.34992 -67.11585 32001 ft 466 kts 25°
2026-04-30 14:23 -27.23865 -67.04135 31996 ft 466 kts 25°
2026-04-30 14:24 -27.15515 -66.98556 31987 ft 466 kts 25°
2026-04-30 14:25 -27.04372 -66.91126 31982 ft 466 kts 25°
2026-04-30 14:26 -26.96017 -66.85565 31981 ft 466 kts 25°
2026-04-30 14:27 -26.87656 -66.80011 31982 ft 466 kts 25°
2026-04-30 14:27 -26.82093 -66.76319 31980 ft 465 kts 25°
2026-04-30 14:28 -26.73763 -66.70799 31978 ft 464 kts 25°
2026-04-30 14:28 -26.68217 -66.67133 31981 ft 464 kts 25°
2026-04-30 14:29 -26.57102 -66.59800 31983 ft 464 kts 25°
2026-04-30 14:31 -26.43199 -66.50647 31998 ft 465 kts 25°
2026-04-30 14:31 -26.34839 -66.45155 32006 ft 465 kts 25°
2026-04-30 14:32 -26.26484 -66.39675 32025 ft 465 kts 24°
2026-04-30 14:33 -26.20907 -66.36022 32032 ft 465 kts 24°
2026-04-30 14:33 -26.12538 -66.30547 32065 ft 466 kts 24°
2026-04-30 14:34 -26.06956 -66.26901 32064 ft 466 kts 24°
2026-04-30 14:34 -26.01363 -66.23252 32064 ft 466 kts 24°
2026-04-30 14:35 -25.92994 -66.17797 32082 ft 464 kts 25°
2026-04-30 14:36 -25.87451 -66.14185 32082 ft 460 kts 24°
2026-04-30 14:36 -25.81956 -66.10610 32087 ft 457 kts 24°
2026-04-30 14:37 -25.76475 -66.07053 32088 ft 456 kts 24°
2026-04-30 14:37 -25.70996 -66.03503 32086 ft 456 kts 24°
2026-04-30 14:38 -25.65520 -65.99961 32087 ft 456 kts 24°
2026-04-30 14:38 -25.60047 -65.96423 32101 ft 456 kts 24°
2026-04-30 14:39 -25.54566 -65.92884 32105 ft 456 kts 24°
2026-04-30 14:39 -25.49084 -65.89347 32106 ft 456 kts 24°
2026-04-30 14:40 -25.40859 -65.84047 32106 ft 456 kts 24°
2026-04-30 14:40 -25.35377 -65.80519 32106 ft 456 kts 24°
2026-04-30 14:41 -25.29885 -65.76986 32106 ft 456 kts 24°
2026-04-30 14:41 -25.24403 -65.73465 32107 ft 456 kts 24°
2026-04-30 14:42 -25.18919 -65.69946 32107 ft 456 kts 24°
2026-04-30 14:42 -25.13426 -65.66425 32107 ft 456 kts 24°
2026-04-30 14:43 -25.07938 -65.62910 32108 ft 456 kts 24°
2026-04-30 14:43 -25.02453 -65.59400 32109 ft 456 kts 24°
2026-04-30 14:44 -24.96959 -65.55889 32109 ft 456 kts 24°
2026-04-30 14:44 -24.91475 -65.52387 32110 ft 456 kts 24°
2026-04-30 14:45 -24.85902 -65.49091 32110 ft 451 kts 18°
2026-04-30 14:45 -24.80078 -65.46606 32111 ft 448 kts 13°
2026-04-30 14:46 -24.74171 -65.44484 32107 ft 446 kts 12°
2026-04-30 14:46 -24.68240 -65.42483 32106 ft 446 kts 11°
2026-04-30 14:47 -24.62305 -65.40514 32104 ft 446 kts 11°
2026-04-30 14:47 -24.56366 -65.38546 32099 ft 446 kts 11°
2026-04-30 14:48 -24.50427 -65.36572 32094 ft 446 kts 12°
2026-04-30 14:48 -24.44499 -65.34595 32090 ft 445 kts 12°
2026-04-30 14:49 -24.38574 -65.32614 32088 ft 445 kts 12°
2026-04-30 14:49 -24.32647 -65.30630 32086 ft 445 kts 12°
2026-04-30 14:50 -24.23767 -65.27655 32086 ft 445 kts 12°
2026-04-30 14:51 -24.14887 -65.24680 32087 ft 445 kts 12°
2026-04-30 14:52 -24.06005 -65.21706 32088 ft 445 kts 12°
2026-04-30 14:52 -23.97118 -65.18734 32086 ft 445 kts 12°
2026-04-30 14:53 -23.88236 -65.15767 32080 ft 445 kts 12°
2026-04-30 14:54 -23.76392 -65.11817 32072 ft 445 kts 12°
2026-04-30 14:55 -23.67500 -65.08857 32061 ft 446 kts 12°
2026-04-30 14:56 -23.55641 -65.04914 32050 ft 446 kts 11°
2026-04-30 14:57 -23.46697 -65.01949 32042 ft 451 kts 11°
2026-04-30 14:58 -23.34658 -64.97961 32037 ft 453 kts 11°
2026-04-30 14:58 -23.25615 -64.94968 32033 ft 453 kts 11°
2026-04-30 15:00 -23.10531 -64.89984 32028 ft 454 kts 11°
2026-04-30 15:01 -22.98452 -64.86003 32025 ft 454 kts 11°
2026-04-30 15:01 -22.89401 -64.83028 32023 ft 454 kts 11°
2026-04-30 15:02 -22.83360 -64.81046 32023 ft 454 kts 11°
2026-04-30 15:03 -22.68271 -64.76102 32027 ft 454 kts 11°
2026-04-30 15:04 -22.53174 -64.71165 32052 ft 454 kts 11°
2026-04-30 15:06 -22.38067 -64.66236 32092 ft 454 kts 11°
2026-04-30 15:07 -22.25971 -64.62295 32110 ft 454 kts 11°
2026-04-30 15:08 -22.13873 -64.58403 32111 ft 454 kts 11°
2026-04-30 15:09 -21.98697 -64.53561 32127 ft 456 kts 11°
2026-04-30 15:10 -21.87555 -64.50012 32146 ft 456 kts 11°
2026-04-30 15:11 -21.69305 -64.44208 32142 ft 456 kts 11°
2026-04-30 15:13 -21.54103 -64.39384 32137 ft 456 kts 11°
2026-04-30 15:14 -21.32822 -64.32632 32128 ft 456 kts 11°
2026-04-30 15:17 -21.05461 -64.23868 32115 ft 456 kts 11°
2026-04-30 15:19 -20.81447 -64.16199 32124 ft 455 kts 13°